Theta_e
305 307 308 307 308 308 308 308 308 308 307 306 305 305 305 305 305 305 305 305 305 306 307 308 307 308 308 308 311 312 311 313 317 320 322 320 315 319 323 324 322 319 319 317 320 325 326 331 334 333 336 343 347 345 345 345 346 355 370 373 365 366 365 364 365 363 366 365 362 363 361 363 365 361 360 360 361 360 356 355 352 351 351 352 352 350 349 350
304 305 307 307 307 307 308 308 307 308 307 306 306 306 306 306 306 305 306 305 305 305 305 307 307 307 307 308 312 311 313 318 320 321 322 318 320 324 323 323 323 320 319 318 319 325 331 333 334 334 338 345 346 344 345 343 345 351 365 367 363 367 366 364 367 361 361 364 364 363 360 361 362 361 360 361 363 358 357 357 353 352 352 352 351 349 350 349
304 304 306 306 307 307 307 307 307 307 306 306 306 306 306 306 306 306 306 306 305 305 305 305 306 307 307 309 312 312 316 321 323 326 328 324 325 326 325 323 322 321 318 317 319 325 332 334 334 336 342 348 345 342 344 343 346 349 354 359 362 365 363 362 365 362 358 362 363 363 360 361 361 358 360 363 361 361 359 356 354 354 354 352 349 349 350 349
304 304 305 306 306 307 307 308 307 307 307 306 306 306 307 306 307 307 307 306 305 305 305 305 306 307 307 310 312 313 318 325 330 331 332 331 330 327 326 325 324 321 316 316 319 324 332 334 334 338 344 349 345 341 344 343 344 349 350 353 360 363 361 363 370 365 356 358 362 362 362 363 361 358 361 366 367 367 361 354 355 353 353 351 349 350 348 349
305 305 305 305 306 306 307 308 307 307 307 306 306 306 307 307 308 308 308 306 305 305 304 305 306 307 308 311 312 316 322 331 332 330 326 326 326 324 325 325 324 320 315 316 318 322 327 331 336 342 345 347 345 341 344 343 342 348 349 350 359 360 361 368 371 365 355 357 363 363 365 362 360 360 361 368 373 370 361 353 354 350 351 351 349 349 348 349
306 306 306 306 306 306 307 308 307 307 307 307 307 307 307 308 308 309 308 306 306 306 305 307 307 309 310 311 314 319 326 331 328 327 323 322 320 319 321 322 323 321 318 317 318 321 323 327 336 343 345 345 344 343 343 341 340 347 345 348 358 355 361 365 361 359 354 360 365 363 364 363 361 359 360 369 372 365 360 354 351 351 350 349 349 348 347 348
307 306 307 306 306 306 307 307 308 307 307 307 307 307 307 308 308 309 308 306 307 307 308 309 309 311 311 312 319 322 325 327 327 325 325 324 321 318 319 321 323 322 320 319 318 320 324 328 337 343 345 344 344 342 341 341 340 343 341 346 356 353 356 360 355 356 354 362 366 360 361 365 364 362 360 364 363 359 362 353 349 351 349 350 349 347 347 348
308 307 307 307 306 306 306 307 307 307 307 307 307 307 307 308 309 309 307 307 307 309 311 312 311 312 311 314 320 323 325 327 327 325 326 328 324 320 320 321 321 321 322 322 319 320 324 330 337 342 344 344 343 340 340 340 339 341 338 339 351 353 353 356 356 355 354 359 360 359 364 366 363 362 361 360 359 359 360 351 349 351 349 350 348 348 349 348
308 307 308 307 306 306 306 307 308 307 307 307 307 307 307 308 309 309 308 307 308 311 313 313 312 312 312 315 319 324 326 325 325 324 326 329 329 324 322 323 322 320 323 323 320 322 327 332 338 340 342 343 342 340 338 337 338 339 338 337 342 349 352 354 355 356 355 357 362 361 367 367 360 359 362 359 358 358 354 350 350 351 350 350 348 348 349 349
309 308 308 307 306 306 306 307 308 308 307 307 307 308 308 308 309 309 308 308 309 313 314 313 313 311 313 319 323 328 326 319 323 322 323 328 330 328 326 328 325 321 323 323 321 324 328 333 337 337 339 340 339 338 336 335 334 332 333 335 336 342 350 354 355 355 355 361 365 364 363 364 359 359 362 357 354 354 351 352 351 351 352 350 348 350 349 349
309 309 308 307 306 305 306 306 307 308 308 308 308 308 309 309 310 310 309 309 310 313 313 314 313 311 314 320 322 326 323 319 321 318 320 325 328 329 330 331 328 322 323 323 323 326 328 332 336 336 337 337 337 336 334 332 331 330 330 330 331 335 345 352 355 355 358 361 360 360 361 362 359 359 362 355 352 354 352 352 351 350 351 350 349 350 350 350
309 309 309 307 306 305 305 306 308 308 308 308 308 309 309 309 310 310 310 310 310 311 313 314 312 312 317 321 321 325 322 318 318 319 320 320 324 327 329 329 325 321 321 322 325 327 328 331 334 335 336 336 337 334 330 328 327 329 328 328 330 331 340 347 354 354 358 361 356 357 361 361 361 360 357 354 353 354 353 351 351 351 351 350 349 350 352 351
309 310 309 308 306 305 305 306 308 308 309 308 308 309 310 311 311 311 311 310 310 311 313 315 313 316 322 325 326 325 320 318 317 319 318 318 322 324 327 327 324 322 322 323 324 326 327 330 332 334 334 334 336 333 329 329 327 327 326 328 330 329 335 339 346 354 358 358 355 357 359 361 363 359 354 354 355 355 354 352 351 352 351 351 350 350 351 351
309 310 309 308 306 304 305 306 308 309 309 309 308 310 310 311 312 312 312 311 311 313 316 316 315 319 325 328 327 321 319 319 319 319 318 318 320 322 327 327 325 323 322 323 325 327 330 331 331 332 333 333 334 332 330 330 328 327 326 327 329 323 328 334 337 350 358 356 355 358 360 360 359 356 354 354 354 354 356 354 353 352 351 351 351 351 351 350
309 310 310 308 306 305 305 306 308 309 309 309 309 310 311 312 312 313 314 312 312 314 316 318 319 322 328 331 328 321 319 320 320 320 319 319 318 319 324 326 328 327 324 325 327 330 333 334 333 332 333 332 333 331 331 331 330 328 322 320 325 322 324 334 333 339 354 355 356 354 354 357 357 355 353 354 354 355 356 356 355 352 351 352 351 351 349 349
310 310 310 308 306 305 305 307 309 310 310 310 309 311 312 312 313 314 316 314 314 314 317 322 324 325 329 329 325 321 320 320 319 318 318 318 316 318 321 325 327 328 329 329 329 332 334 334 333 331 331 331 332 332 331 328 326 329 323 315 320 321 322 330 331 333 350 355 358 352 353 362 366 355 352 354 354 354 357 356 356 354 352 352 351 351 351 349
309 310 309 308 307 305 306 308 310 310 311 310 310 312 313 314 315 317 317 316 314 315 319 323 325 327 331 328 322 320 319 318 317 316 317 317 317 317 319 323 325 327 329 330 331 333 334 334 333 331 331 330 332 331 327 322 320 323 323 318 319 322 321 323 328 333 347 355 359 353 355 362 362 355 352 354 354 355 357 356 357 356 353 354 352 351 351 351
309 309 309 307 307 307 308 310 311 311 311 311 311 312 315 317 319 319 318 319 319 320 323 325 327 330 329 327 325 319 317 317 315 317 317 317 317 316 317 322 325 326 328 329 330 332 332 333 333 332 331 330 331 330 323 321 320 319 318 317 318 321 321 321 326 331 343 352 356 353 353 356 355 355 353 354 355 355 356 355 354 356 355 355 353 352 352 352
309 309 308 308 308 309 310 311 311 312 311 311 312 313 317 320 323 322 319 323 327 330 331 329 332 332 321 319 321 316 317 317 315 317 317 317 318 317 317 321 325 326 327 329 330 331 332 332 332 331 330 329 330 329 326 326 325 322 320 318 317 317 321 325 328 330 336 344 352 353 351 353 355 354 355 355 356 356 360 360 357 358 359 356 354 352 352 351
308 308 308 308 309 310 311 311 312 311 311 312 312 315 319 318 320 321 318 320 325 329 328 326 330 327 316 315 317 316 317 315 316 318 318 318 318 317 317 319 325 327 328 328 330 331 331 332 331 329 328 329 329 329 329 329 328 327 323 320 318 316 318 328 332 331 334 341 347 355 352 354 356 354 355 354 354 357 361 362 360 361 364 365 363 360 358 354
308 308 308 308 309 310 311 312 312 312 312 311 311 314 317 314 315 316 314 315 317 319 321 321 320 318 315 315 315 316 315 314 317 318 318 319 317 317 317 319 325 328 328 328 329 329 329 328 329 329 329 330 330 329 329 328 328 326 323 319 318 316 317 325 331 331 338 342 344 353 353 353 355 352 354 354 354 356 357 359 360 360 367 369 367 367 369 364
308 308 309 309 310 311 312 312 312 313 312 312 313 316 316 313 314 314 314 314 315 315 316 317 315 314 315 315 316 315 314 315 317 318 319 318 318 318 320 322 325 327 327 327 328 328 327 326 327 329 330 329 329 329 327 327 327 324 323 318 316 318 320 322 328 332 336 341 344 350 350 349 353 353 353 352 354 354 354 356 360 361 364 368 364 364 367 366
308 309 309 310 310 311 312 313 313 315 314 314 316 318 315 314 315 315 315 314 314 315 316 316 315 315 315 315 315 314 313 315 316 319 319 317 319 319 322 325 325 326 324 326 328 324 323 325 328 328 329 330 329 328 327 326 324 323 322 316 314 319 319 316 323 331 333 339 346 351 350 350 353 353 353 353 352 352 354 356 360 362 362 363 362 361 364 364
308 309 310 310 310 311 312 313 314 316 316 316 317 317 315 315 315 315 314 315 315 316 317 317 316 316 315 314 315 314 314 314 316 318 318 317 319 319 322 324 326 327 325 324 325 323 323 325 327 327 327 329 327 328 327 322 320 322 323 318 316 320 320 317 322 330 328 336 348 349 344 347 354 354 354 353 352 352 354 357 361 363 362 361 359 358 361 362
309 309 310 310 311 312 313 314 316 316 316 317 317 316 315 315 316 315 314 317 318 318 317 317 315 315 315 314 315 314 314 315 315 317 318 317 318 317 318 320 324 327 326 325 325 324 324 324 325 327 326 327 326 327 327 323 318 318 322 323 321 322 322 321 323 323 319 324 342 346 336 340 351 351 355 352 353 355 354 357 363 364 363 360 358 357 356 356
309 310 310 311 310 311 313 317 317 315 316 318 316 316 315 315 316 313 316 318 318 318 316 315 314 313 314 314 315 314 314 315 316 317 318 317 316 317 316 317 322 325 326 327 327 325 323 324 323 324 326 327 326 325 325 325 318 314 321 325 325 325 323 321 320 317 313 316 335 344 336 338 345 346 353 354 353 357 354 356 363 364 362 360 357 355 354 354
310 310 310 311 311 311 313 315 315 316 318 318 316 316 315 315 314 314 321 322 318 317 315 313 314 313 313 313 313 314 313 314 316 317 318 317 317 317 316 318 319 321 322 323 322 324 325 325 324 324 325 325 325 324 325 327 320 316 324 325 326 325 322 321 319 316 315 317 325 330 333 338 340 343 350 353 352 356 354 354 361 362 360 359 358 355 354 354
310 310 310 311 312 311 310 312 314 317 318 318 317 316 315 315 315 315 324 325 319 316 315 312 314 312 312 314 313 314 315 314 315 317 318 318 317 318 317 317 317 318 319 318 317 322 324 325 325 324 324 324 324 326 326 327 322 322 326 326 326 326 323 323 319 315 318 316 314 318 321 329 334 343 351 355 352 352 354 354 359 361 359 358 357 355 354 354
310 310 310 311 312 313 313 313 315 318 319 318 317 316 315 316 316 316 323 326 319 313 315 313 313 313 313 315 314 314 314 314 315 316 317 318 317 317 316 316 317 318 318 318 317 319 322 323 324 324 323 324 325 326 327 327 325 325 326 326 325 326 325 324 320 316 315 314 311 314 315 317 324 337 346 348 346 348 353 353 358 360 359 357 357 355 355 354
311 311 311 310 312 314 315 315 316 318 318 318 317 315 316 316 318 321 324 325 317 313 315 313 313 314 314 314 315 315 315 315 315 316 316 317 316 316 316 317 317 316 318 318 318 319 319 321 323 324 323 325 325 326 327 325 326 326 326 326 325 325 326 324 325 320 314 313 313 312 314 313 318 330 342 345 345 350 352 352 358 360 357 357 357 355 355 354
312 312 311 311 312 312 313 315 316 317 318 317 316 315 317 318 320 324 324 320 314 314 315 314 314 314 314 314 314 314 314 315 315 315 314 315 315 316 317 318 316 315 316 315 316 317 318 318 321 322 322 325 325 325 326 325 326 325 326 324 319 320 320 319 322 321 315 314 314 313 314 312 312 324 341 348 348 349 352 351 357 360 358 357 356 356 354 353
312 313 313 313 313 311 313 315 316 317 317 316 316 316 319 321 322 322 322 315 312 314 314 314 314 314 314 314 314 314 314 314 313 314 314 314 315 317 317 318 316 315 314 313 314 316 316 317 317 321 323 324 325 324 323 325 325 325 325 320 316 315 315 314 315 317 315 316 315 314 314 311 313 323 338 348 350 349 350 350 353 359 359 356 356 356 354 353
312 313 314 314 312 312 314 316 317 318 318 316 317 317 319 325 325 321 317 313 312 314 314 314 313 313 314 313 314 314 314 314 313 314 313 313 314 316 317 318 317 316 315 314 313 313 315 317 317 318 321 324 326 322 319 320 323 323 320 317 316 315 315 315 315 315 316 316 315 316 315 311 312 321 331 339 344 348 350 349 352 357 357 356 355 355 354 353
313 315 317 316 313 314 317 317 317 318 318 316 317 319 321 324 323 316 313 313 314 314 315 314 313 313 313 312 314 315 313 313 314 313 314 313 312 315 318 317 317 317 316 314 313 313 313 317 319 316 318 322 326 324 322 322 323 324 324 321 318 314 313 315 316 316 316 315 314 314 315 311 311 321 330 329 332 344 348 348 352 354 354 355 354 354 353 353
314 317 320 320 318 319 319 318 318 318 317 316 317 321 323 320 316 314 313 314 313 314 314 314 314 313 313 313 315 314 313 313 313 313 314 312 312 317 319 317 317 316 315 315 315 313 312 314 317 316 317 320 322 323 326 324 321 324 326 321 316 317 316 314 315 316 315 315 315 313 313 315 319 329 330 327 326 331 340 347 350 352 354 354 354 353 353 353
316 318 321 322 322 321 320 319 319 318 317 316 319 323 322 316 314 314 315 314 313 314 314 313 313 312 310 312 315 314 314 313 313 313 313 313 314 317 318 317 316 315 314 315 315 313 312 312 315 316 317 319 320 320 322 323 321 322 321 317 319 323 320 314 314 315 313 315 316 313 312 317 320 325 327 326 328 325 330 343 349 353 355 355 354 353 352 353
318 320 322 324 322 318 317 317 318 317 316 317 321 324 321 314 314 315 314 314 314 313 313 312 313 312 310 311 313 314 313 313 313 313 312 313 316 316 316 315 315 315 314 314 315 314 312 312 314 315 315 316 317 318 321 323 323 321 317 318 323 324 319 316 315 315 316 316 315 313 314 314 313 317 325 325 328 327 326 337 351 356 356 355 354 352 352 352
318 319 323 324 319 315 315 316 315 316 316 319 322 324 319 314 313 313 313 314 314 313 313 311 312 314 312 311 311 313 314 312 313 313 311 313 315 314 314 314 314 314 313 313 314 314 313 312 313 314 314 315 315 318 320 322 325 323 321 322 322 318 316 316 315 316 318 317 316 315 315 315 312 315 321 323 325 330 326 333 350 357 356 355 354 352 353 353
318 321 324 320 316 315 315 315 316 317 319 322 323 320 316 314 313 313 312 312 312 313 312 312 313 314 313 312 312 313 313 312 312 313 312 313 314 313 313 313 313 312 312 313 314 314 314 313 313 313 315 315 314 317 317 318 323 323 323 325 323 319 317 317 316 315 317 318 318 317 316 316 320 323 322 322 325 330 328 333 349 356 354 353 353 352 353 354
322 324 322 317 315 316 316 316 317 320 321 322 321 317 315 315 313 313 312 311 312 312 311 312 312 312 312 313 313 312 313 313 312 313 312 312 313 313 312 312 313 312 312 312 313 315 316 316 314 314 316 315 313 316 316 315 317 318 318 319 319 320 321 319 318 315 316 318 318 319 318 318 328 333 327 326 326 327 329 334 346 353 354 351 352 354 353 353
322 324 320 316 316 316 316 317 318 320 321 319 317 314 314 314 313 313 313 312 312 312 311 312 312 312 312 312 312 312 313 312 312 312 312 312 312 312 312 312 312 311 312 312 313 315 317 318 318 316 316 315 314 315 316 316 317 316 316 317 317 318 318 317 319 318 315 315 316 318 319 320 330 336 333 331 329 327 331 335 345 353 353 350 352 352 352 353
323 323 317 315 317 316 316 318 319 320 319 316 314 313 314 315 313 313 313 312 312 312 312 312 312 312 312 312 311 312 312 312 312 312 312 312 312 312 312 311 312 312 311 312 313 314 316 319 319 317 316 315 315 317 316 316 318 317 317 318 320 320 317 315 318 320 317 315 315 316 316 320 330 336 334 333 330 328 330 335 344 354 353 352 352 352 351 352
324 322 317 315 317 316 317 320 321 319 316 316 314 313 314 314 313 313 313 313 312 311 312 313 312 312 311 311 312 311 311 311 312 312 311 312 312 312 312 312 312 311 312 312 313 314 316 318 319 317 317 316 316 315 314 315 317 317 318 320 322 322 321 318 319 320 319 317 316 317 316 320 329 336 334 335 332 329 331 335 339 348 352 353 351 350 351 351
321 322 320 317 317 316 317 318 319 319 316 315 314 313 314 312 312 312 312 312 311 310 312 312 311 311 311 311 311 311 311 313 314 313 312 313 313 312 312 311 311 312 311 313 313 313 314 317 318 318 320 320 318 314 317 323 320 316 319 321 322 322 322 321 321 321 322 322 320 319 317 319 330 343 338 338 339 333 332 333 331 341 348 351 353 351 351 353
321 324 321 318 317 317 316 315 316 317 316 315 314 313 313 312 310 311 311 312 311 309 311 312 311 312 312 312 312 312 312 313 314 313 312 312 313 312 312 312 311 312 312 315 315 313 314 315 316 318 320 322 321 319 322 324 318 315 317 317 318 319 318 319 321 322 326 327 322 321 323 324 333 344 342 340 341 340 339 338 334 334 341 346 350 353 351 353
323 324 320 318 317 316 316 314 314 316 315 316 316 314 313 312 311 311 311 311 311 310 311 312 312 312 312 313 313 313 313 313 313 314 314 313 312 312 313 312 312 312 312 315 314 312 313 314 314 317 318 317 317 318 317 317 314 313 315 314 315 318 318 318 321 322 324 325 323 326 329 326 327 338 344 343 342 345 346 343 341 340 341 341 348 353 351 351
323 320 317 317 318 316 316 315 314 316 315 316 317 315 313 313 312 311 311 311 312 310 312 313 313 312 313 313 313 313 313 313 313 314 314 314 314 313 313 312 312 313 315 315 313 313 314 313 313 314 314 312 312 312 312 312 312 312 312 312 313 315 316 316 318 320 322 324 324 328 330 324 322 331 342 344 344 347 347 344 342 341 341 344 349 354 353 351
321 321 318 318 320 318 317 316 315 315 315 315 316 314 313 314 313 313 312 311 311 312 313 315 313 312 313 313 313 314 314 314 314 315 315 315 315 313 313 313 312 313 314 313 312 313 314 313 312 310 311 310 310 310 310 311 311 311 311 311 311 313 314 314 316 317 320 322 324 326 327 325 323 329 340 344 345 346 345 344 342 342 343 347 350 351 351 351
319 321 319 319 321 318 316 316 315 314 314 316 317 315 313 313 313 312 312 312 312 313 314 314 314 313 312 312 314 316 316 315 316 316 316 316 315 315 314 315 313 312 312 312 313 314 313 313 312 310 311 311 310 311 311 310 310 311 311 311 311 312 313 313 315 317 318 321 322 324 326 326 329 338 344 346 346 343 344 344 343 345 349 351 353 353 353 352
319 320 320 321 320 318 317 315 315 316 315 317 317 315 313 313 313 312 312 312 312 312 312 313 312 312 312 312 314 315 315 315 315 315 315 315 315 315 315 315 314 313 312 312 312 314 314 314 313 311 312 312 311 311 311 310 311 311 310 312 311 312 313 313 315 317 319 320 321 324 325 328 337 346 345 346 346 343 343 346 347 347 350 352 354 355 355 355
319 319 320 322 322 321 320 317 315 317 316 315 316 315 313 314 313 312 313 312 312 311 312 312 312 312 311 312 313 314 313 314 314 313 313 313 313 313 313 313 313 314 314 313 314 316 316 315 313 312 313 312 311 311 311 311 311 310 310 311 311 311 312 314 315 318 319 320 321 321 323 328 337 345 345 344 345 344 343 344 345 346 347 349 352 353 354 355
318 319 319 322 323 321 319 316 315 317 315 314 315 314 313 313 313 313 314 313 312 312 312 312 312 312 313 313 314 313 313 313 312 312 312 311 311 311 311 311 311 312 314 313 315 316 317 315 314 313 314 313 311 311 311 311 312 312 311 311 311 312 312 312 314 317 318 318 319 320 322 326 334 342 345 344 344 346 343 338 339 341 342 344 347 349 351 351
Wind_Speed
26 26 26 27 29 29 29 27 26 24 23 20 19 18 18 18 18 19 19 19 19 20 20 19 18 18 18 17 16 15 15 15 12 8 11 8 8 11 6 3 4 9 10 7 11 10 10 12 13 16 13 10 8 6 8 8 5 4 2 2 2 2 2 3 3 3 3 2 2 3 2 2 2 2 1 5 10 7 11 8 11 12 14 18 18 27 34 33
27 27 27 28 29 30 29 28 27 25 23 21 19 18 19 19 20 20 20 21 20 20 19 18 18 17 17 16 14 13 14 13 11 13 15 7 7 9 9 6 4 7 10 11 13 12 9 10 12 14 9 6 7 6 6 6 6 4 2 2 3 3 2 3 4 3 4 7 5 6 7 5 4 5 4 6 9 11 11 8 13 16 18 21 23 28 31 31
27 28 28 28 30 30 30 29 27 25 24 22 20 19 20 20 21 21 22 22 20 19 18 17 17 16 16 14 12 12 11 10 8 10 9 6 8 10 11 11 9 8 11 14 15 14 12 12 14 12 8 7 6 7 7 6 6 5 4 3 4 5 3 4 5 3 4 9 10 9 8 5 5 5 2 2 6 8 9 10 14 19 21 22 21 25 29 28
27 29 29 29 30 31 31 30 27 25 23 21 21 20 21 22 22 23 23 22 20 19 17 16 16 15 14 11 10 10 7 7 3 2 1 2 5 9 14 15 13 12 13 17 16 15 16 14 15 12 9 7 5 8 8 6 6 4 5 5 5 6 4 5 6 3 3 7 9 7 5 4 4 3 2 2 4 2 6 10 15 21 24 23 21 23 26 25
28 29 30 30 31 32 32 31 28 26 23 21 21 21 21 23 23 24 23 21 19 17 15 14 15 14 11 9 9 8 4 2 3 5 2 1 2 6 12 15 13 12 14 17 15 14 16 13 13 11 7 6 6 6 7 9 8 4 8 9 7 7 4 6 7 5 5 6 7 6 5 2 2 4 1 2 4 2 3 11 17 21 23 23 24 23 23 22
28 29 30 30 31 32 32 31 29 26 24 22 22 21 22 23 25 26 23 19 17 15 14 13 14 12 8 8 8 4 2 2 1 3 3 3 3 6 8 11 12 12 13 14 14 12 11 12 11 9 6 5 7 7 8 11 9 5 7 6 8 8 6 8 9 10 9 7 8 7 4 2 3 4 1 0 4 4 2 12 20 19 21 23 23 22 21 20
28 29 29 31 31 32 32 32 29 26 24 23 23 22 22 24 25 26 22 17 15 14 13 11 12 9 7 8 5 0 2 6 5 2 5 5 3 6 10 12 14 13 13 13 12 10 8 11 11 8 6 6 7 9 10 10 10 8 5 4 9 10 8 10 11 11 11 8 8 10 9 7 6 6 2 3 9 9 6 12 21 18 20 21 19 18 18 19
29 29 30 31 31 32 32 32 30 27 25 24 24 23 23 24 26 25 19 15 14 12 10 8 9 9 8 7 3 2 3 7 4 3 5 4 4 4 10 13 15 15 14 14 13 11 8 10 11 8 6 7 8 10 10 10 8 7 6 6 9 10 9 12 11 11 12 9 8 11 10 7 9 11 9 10 13 9 5 13 20 19 19 18 17 16 16 18
29 29 30 31 32 32 32 32 30 27 25 25 24 24 25 25 26 24 18 15 12 10 7 7 10 10 8 4 3 3 1 2 3 4 4 3 6 4 10 12 14 17 15 15 15 13 9 8 10 8 6 8 9 9 9 7 5 5 9 8 8 10 10 11 11 12 12 7 7 9 7 4 6 9 10 14 13 8 9 17 19 19 18 17 17 15 14 16
29 29 30 31 32 32 32 32 30 28 25 25 25 25 25 25 25 23 18 14 10 9 7 9 12 11 7 4 3 2 2 4 1 1 2 2 5 2 9 11 13 17 14 13 15 14 10 9 9 7 7 7 7 8 8 7 5 6 8 8 9 8 11 12 11 13 10 6 8 9 7 5 5 4 5 12 14 10 13 18 19 19 18 17 16 13 14 15
29 29 30 31 32 32 32 32 30 27 25 25 26 25 25 24 23 22 19 14 9 9 9 12 14 9 6 4 3 2 4 7 6 5 2 3 2 1 6 10 14 16 13 11 14 16 15 15 12 6 6 5 6 8 8 8 8 9 10 9 10 7 8 14 13 13 9 6 9 10 7 3 3 3 3 9 13 12 14 17 19 18 16 17 17 14 11 13
30 30 30 31 31 32 32 32 30 28 25 26 26 26 25 23 22 21 19 14 9 9 10 13 11 5 5 5 6 6 6 9 7 6 4 3 6 5 4 10 15 15 14 10 12 19 19 19 15 8 5 3 5 5 5 8 8 9 9 8 9 8 4 12 13 13 9 5 10 11 7 1 5 6 6 10 11 11 15 16 17 16 15 15 15 14 11 13
30 30 30 30 31 31 31 32 31 29 26 26 26 26 25 22 21 20 18 14 9 9 10 11 6 3 4 4 6 6 7 8 5 4 4 5 7 7 5 10 14 13 15 13 14 19 20 19 15 10 7 6 5 4 7 9 7 8 7 5 5 6 3 7 10 15 12 8 13 11 4 4 8 10 10 12 11 11 13 13 15 15 14 13 12 13 12 13
30 30 30 30 30 30 31 31 31 30 27 26 27 25 24 21 21 20 17 13 10 8 8 8 4 2 3 5 6 4 4 4 3 4 4 5 5 6 6 8 12 14 16 17 17 17 17 18 14 8 7 7 6 7 9 8 6 6 5 3 3 2 3 6 8 15 14 10 14 9 2 4 7 12 14 13 13 13 12 10 12 14 13 12 12 13 13 13
30 30 30 30 30 30 31 30 31 30 28 28 27 25 23 21 21 19 15 12 10 7 7 8 5 3 3 7 8 6 4 2 4 4 4 3 5 6 9 9 11 13 16 17 17 17 17 14 10 6 5 6 6 6 6 4 5 5 4 3 3 4 4 7 11 14 15 12 15 10 3 4 7 12 14 14 14 14 13 10 9 12 13 13 12 13 12 12
30 31 30 30 30 30 31 30 30 31 29 29 27 25 22 21 22 19 15 13 11 8 6 5 6 6 3 4 3 5 7 3 1 3 4 6 7 8 9 11 10 11 13 14 14 14 15 11 5 4 4 5 5 4 4 4 4 4 3 3 4 5 5 6 11 12 19 17 16 12 5 3 6 10 13 14 14 13 12 11 11 12 13 13 12 12 11 10
31 30 30 30 30 30 30 30 31 31 29 29 27 25 23 22 20 15 12 11 10 9 7 6 5 5 5 7 4 3 4 1 3 6 7 6 6 10 10 7 8 9 10 11 12 10 9 6 2 3 4 4 4 3 2 4 5 4 3 4 5 6 5 6 8 9 20 20 16 14 8 7 8 9 12 14 15 13 11 11 12 12 11 11 11 12 11 10
31 30 30 30 30 30 30 31 31 30 30 29 27 27 24 19 12 9 8 6 5 5 7 9 6 2 4 7 7 3 2 5 5 6 5 2 4 8 11 5 4 7 7 6 9 8 4 3 2 2 3 4 4 4 5 6 5 4 5 5 6 8 8 8 7 6 17 21 18 15 9 12 13 11 12 13 14 13 11 12 12 11 11 10 11 13 11 10
31 30 30 30 30 30 30 31 30 30 30 27 25 25 18 10 5 2 3 2 1 2 3 4 5 2 3 4 5 3 5 5 6 7 5 3 4 5 9 8 4 6 5 3 5 6 4 2 3 4 3 6 7 7 7 6 6 8 8 5 5 6 7 9 10 9 13 18 16 15 11 12 14 12 12 13 13 11 7 8 10 10 10 9 10 11 12 12
30 30 31 30 30 30 30 31 30 29 28 26 26 21 10 6 4 1 1 3 5 7 9 7 7 5 6 3 3 6 9 8 7 5 5 4 4 5 4 6 4 5 4 4 6 6 5 3 4 5 6 7 9 10 11 10 10 12 10 7 7 6 7 8 11 12 10 13 11 13 12 13 14 13 13 13 13 12 8 8 9 10 8 7 9 8 9 12
31 31 31 31 31 30 30 31 29 25 24 23 22 12 4 6 3 2 5 6 8 10 13 12 6 6 6 5 7 7 6 6 8 3 5 2 3 3 2 4 4 4 4 6 5 5 6 5 5 7 9 9 9 10 11 12 12 12 9 8 8 7 8 9 12 11 9 12 10 13 12 13 15 15 15 14 12 11 12 13 11 11 9 6 8 7 6 7
32 32 33 32 31 30 30 29 26 21 19 17 11 4 2 8 5 6 6 5 10 12 13 10 5 7 6 4 6 6 4 4 7 5 5 0 3 4 3 4 4 4 6 6 5 3 5 5 7 9 9 10 10 10 11 12 12 10 7 6 6 6 8 10 11 9 8 9 10 15 13 10 13 17 18 17 14 11 13 14 12 12 10 8 8 8 8 5
33 33 33 32 31 30 28 27 22 16 15 14 8 3 5 8 9 10 6 4 8 11 10 7 6 7 4 3 1 2 4 5 2 5 4 2 3 3 4 4 5 5 5 6 5 4 4 5 10 11 10 10 11 11 11 10 8 7 6 5 6 7 8 7 7 6 4 6 13 15 10 8 10 12 13 14 15 13 13 14 12 12 12 11 11 9 10 9
32 33 33 32 32 29 27 26 17 11 15 17 15 7 8 9 10 11 6 4 5 8 9 7 7 5 0 1 2 1 3 5 2 3 3 3 1 1 3 4 5 5 4 7 9 8 7 7 11 13 12 11 11 11 10 7 5 6 7 7 6 9 11 9 7 7 6 4 15 15 6 4 8 12 12 11 13 12 13 15 13 12 12 11 11 9 9 11
33 33 32 32 30 28 27 19 11 15 20 15 11 7 11 10 10 10 5 2 2 4 6 5 2 1 2 1 4 3 3 5 2 2 3 1 2 3 3 3 3 4 6 8 9 8 9 10 10 11 12 12 11 9 8 7 5 5 8 9 9 12 14 13 11 9 6 2 11 15 6 3 8 13 13 11 12 12 11 14 15 14 12 11 11 11 10 11
33 32 32 30 28 29 22 8 11 22 18 9 10 13 12 11 11 8 3 2 2 2 3 3 2 1 1 1 2 2 4 4 2 3 3 2 2 1 3 3 2 4 6 6 5 3 6 9 10 11 10 12 11 9 8 8 5 4 6 8 11 12 14 14 12 7 4 4 6 11 7 4 7 11 14 15 16 15 12 12 15 14 13 13 12 12 12 12
33 31 32 29 26 27 16 6 16 21 9 8 15 15 12 11 11 7 1 2 2 3 3 2 2 2 1 2 2 1 2 2 4 2 2 3 2 1 2 4 3 4 5 3 2 2 5 7 9 11 10 8 8 7 8 9 6 4 6 9 10 11 13 14 10 6 4 5 5 6 3 4 6 9 14 17 17 15 14 13 14 15 15 16 14 14 15 14
32 31 31 28 24 21 13 13 16 13 7 12 15 13 12 12 10 5 1 1 1 2 1 1 2 3 2 2 4 3 3 2 2 2 4 6 3 2 3 5 6 6 6 4 3 4 7 7 6 8 9 6 5 6 8 10 8 5 7 11 9 8 11 12 8 5 4 5 6 7 3 1 5 8 11 15 16 14 15 16 16 17 18 18 16 16 16 14
32 31 30 28 22 12 7 12 11 7 10 15 15 13 13 13 8 2 1 1 1 1 1 1 2 2 2 3 4 5 5 4 2 2 4 6 5 3 3 4 6 8 8 6 5 6 8 6 4 6 7 5 6 7 7 9 7 6 9 11 10 7 6 6 5 3 2 4 7 7 4 2 3 7 10 10 13 15 16 17 17 18 19 19 17 16 16 14
32 30 29 28 21 10 6 10 12 9 13 14 14 15 14 10 4 1 2 1 3 2 1 2 2 2 5 5 4 4 4 3 1 1 3 4 5 5 3 4 4 5 6 6 6 7 9 11 8 6 6 6 7 8 8 7 6 5 8 8 8 7 5 3 3 2 1 3 7 8 6 4 3 6 11 12 15 18 16 15 16 18 19 19 17 17 16 14
31 28 26 25 21 12 7 8 7 10 13 12 14 14 10 4 1 1 1 2 2 1 1 3 2 2 4 5 2 2 3 2 1 1 3 2 4 6 4 3 2 2 4 5 5 7 9 10 7 5 7 7 6 6 6 7 7 5 4 4 4 4 4 3 3 4 1 3 5 7 7 6 5 4 10 15 19 22 19 17 18 20 20 19 17 17 17 15
30 25 21 19 16 11 9 7 7 12 12 13 12 9 4 0 1 2 1 1 1 2 1 4 3 3 3 4 0 3 1 0 1 3 3 2 2 2 1 1 1 2 3 3 4 6 7 8 6 6 8 7 5 5 4 5 6 6 5 4 3 2 2 2 1 1 2 4 5 7 7 5 5 4 8 13 16 18 18 18 21 22 22 20 18 18 17 15
29 21 15 10 10 11 10 7 9 10 12 13 9 4 2 1 1 1 1 3 2 2 2 3 3 5 4 4 3 3 3 1 0 2 4 4 4 2 8 10 8 5 2 3 6 5 3 6 6 5 5 3 3 4 3 2 4 5 4 3 3 2 3 3 1 2 3 4 6 8 8 4 3 5 6 10 13 18 19 18 20 24 23 22 21 19 17 16
25 15 11 7 9 12 10 7 5 7 10 11 5 2 2 1 2 7 7 6 3 2 3 3 3 4 3 2 2 2 2 3 2 2 3 4 4 3 8 11 12 8 4 4 3 4 5 4 2 3 4 3 4 6 5 4 4 3 1 1 2 2 2 3 2 4 4 4 6 8 7 2 3 5 8 7 8 15 19 19 18 20 21 20 19 19 18 17
20 9 10 12 14 15 11 6 4 7 9 6 2 2 2 1 4 6 5 5 5 6 6 3 5 4 3 2 3 4 3 2 2 2 3 3 3 4 4 7 11 9 5 4 3 5 6 5 5 10 11 9 6 4 6 6 4 2 3 3 4 4 2 3 3 3 4 3 4 6 5 3 5 6 9 11 9 8 15 20 20 18 18 17 17 19 19 18
19 10 8 14 17 12 6 5 4 6 7 4 2 2 1 3 5 5 4 6 5 6 7 5 3 2 2 2 5 5 3 1 2 2 2 2 5 8 7 6 9 10 7 4 2 4 5 6 8 13 14 11 10 12 8 7 4 2 3 6 6 6 4 2 4 6 4 3 3 4 5 4 4 5 8 11 13 9 8 16 23 21 19 18 17 19 19 18
23 15 10 14 13 3 3 2 4 5 4 2 2 4 2 4 7 7 5 8 7 6 6 4 2 3 4 2 5 3 3 1 3 3 2 2 5 8 7 7 10 11 10 5 1 4 5 8 9 9 13 14 14 18 14 6 9 3 3 4 4 4 3 1 1 4 3 3 3 5 6 4 5 5 7 10 11 11 10 10 21 23 20 20 18 19 21 20
21 13 10 11 6 6 6 3 4 5 3 2 3 4 3 7 8 8 7 8 8 6 4 4 3 3 4 4 2 2 3 2 2 3 4 2 4 9 8 6 10 12 11 7 3 4 5 7 9 5 9 15 15 13 13 5 9 8 5 5 1 0 3 3 2 2 2 3 3 5 7 4 6 5 9 13 11 10 12 9 19 24 21 20 19 20 23 20
13 6 5 4 5 7 4 2 3 4 2 2 3 2 4 8 9 9 8 8 7 6 5 6 5 3 5 6 4 5 6 5 2 2 4 3 3 8 11 7 8 12 10 7 3 3 3 2 7 6 9 14 12 4 4 7 3 6 6 6 3 1 3 3 2 2 2 2 2 4 6 4 5 6 11 16 15 13 14 10 17 25 23 21 20 19 20 18
7 2 2 6 5 6 2 1 2 3 2 2 3 4 6 7 8 9 8 8 7 4 5 6 6 5 6 7 6 6 7 7 6 3 4 6 5 6 12 10 7 10 9 7 6 5 3 1 5 9 11 10 7 3 5 10 9 7 6 5 4 3 3 3 3 3 3 3 2 2 4 5 5 5 8 13 15 15 14 9 12 22 24 21 19 17 16 16
5 1 1 7 4 4 3 3 2 3 2 2 4 6 7 6 7 9 9 9 7 4 5 6 6 5 5 6 7 6 5 6 6 4 4 8 8 5 10 11 9 9 7 5 7 6 4 2 4 8 8 7 9 11 12 12 10 9 7 6 5 4 4 5 4 3 3 4 3 2 4 6 5 2 2 5 11 14 12 7 9 19 23 20 18 18 18 16
3 2 2 5 2 3 5 4 1 1 1 3 4 6 6 5 7 10 10 10 8 5 5 5 6 8 6 6 6 6 6 4 4 4 4 9 11 7 8 11 10 9 6 5 7 8 5 2 3 7 7 9 16 19 17 13 11 10 8 6 5 4 5 5 4 3 3 3 5 4 3 7 6 4 9 10 8 14 12 6 9 19 24 21 19 20 19 18
2 4 2 1 3 4 4 3 2 2 3 2 4 7 7 6 7 8 8 9 8 6 6 5 8 8 6 6 6 6 6 4 3 5 4 6 10 9 10 12 12 9 7 5 6 8 6 2 2 6 7 9 15 17 14 9 8 7 6 6 5 6 7 6 3 3 3 3 3 4 5 7 8 5 10 13 4 11 11 7 8 13 18 20 21 22 20 18
4 5 4 3 5 5 2 3 4 2 4 2 4 7 7 7 8 6 6 7 7 6 7 6 8 7 6 6 5 5 6 3 4 7 5 5 6 7 9 11 10 8 6 3 4 5 4 2 4 4 6 7 9 10 7 7 10 7 7 10 10 10 13 9 3 4 2 5 9 2 5 5 7 8 12 16 12 2 4 7 9 8 11 13 13 15 17 17
5 3 3 3 2 2 2 5 6 4 5 5 4 7 8 7 7 7 7 9 7 5 6 5 7 9 8 7 5 6 7 4 3 5 5 6 5 4 8 10 8 6 5 6 6 4 2 2 3 2 3 4 5 5 4 6 8 7 9 14 15 14 16 10 5 4 2 5 9 4 3 5 10 13 14 17 18 15 12 8 2 2 7 11 10 11 12 12
4 1 3 4 3 5 5 5 7 5 6 6 4 6 6 6 7 7 7 8 6 5 6 6 7 8 8 8 7 7 7 5 4 5 5 6 5 5 9 11 8 6 7 8 7 4 1 2 3 3 4 6 7 9 10 10 10 10 14 17 15 14 13 8 4 3 4 7 5 3 5 11 14 15 13 15 17 16 17 19 15 10 5 5 9 12 15 14
3 2 3 4 3 4 4 5 6 5 6 6 3 6 9 7 8 6 5 5 4 6 7 7 8 7 7 8 7 6 8 8 7 6 6 6 5 7 10 10 8 9 10 8 5 2 1 2 5 7 9 10 11 15 17 15 13 15 17 16 15 14 13 10 6 5 7 7 4 6 11 12 13 15 11 12 14 13 14 17 16 15 14 10 8 8 8 14
3 2 5 5 3 2 2 3 4 7 8 6 4 6 11 10 9 6 5 5 5 7 6 4 6 8 7 7 5 5 7 6 5 4 5 5 5 6 7 6 6 8 10 7 5 3 2 3 5 9 12 12 13 14 16 15 13 15 16 16 16 14 12 10 9 8 8 5 5 10 13 11 12 13 9 10 11 11 12 13 14 15 16 15 19 23 17 9
3 2 5 7 4 2 4 5 6 8 9 7 5 6 9 9 10 10 7 4 4 7 5 3 5 7 7 7 4 2 5 4 4 5 4 3 4 3 4 4 3 6 7 5 4 3 1 3 6 8 10 12 13 13 14 14 14 15 16 15 14 15 13 11 10 10 11 10 9 11 12 10 10 6 5 7 8 11 11 12 14 17 17 16 18 20 18 17
3 2 4 5 4 5 5 5 4 4 7 7 5 5 7 8 10 10 8 6 7 8 6 5 6 5 5 6 4 2 4 4 5 5 4 4 4 2 2 2 1 2 3 2 3 3 2 3 7 7 7 9 12 12 12 13 14 16 17 15 13 14 14 13 11 9 11 11 9 10 10 8 5 3 4 5 8 13 15 15 16 16 16 16 17 17 16 16
9 7 7 4 2 5 4 4 5 4 6 6 4 5 7 8 10 8 7 7 6 3 3 7 9 6 3 4 4 5 6 6 7 8 7 6 5 3 3 2 0 1 2 2 1 1 2 2 6 5 5 7 10 12 13 14 15 16 16 15 12 11 11 11 10 7 9 10 10 10 8 5 4 5 6 9 12 14 16 17 16 14 16 17 16 17 16 15
13 11 11 5 2 4 3 5 7 5 4 3 5 5 5 7 9 6 4 5 5 4 6 9 9 7 3 4 5 6 7 8 8 7 7 6 7 5 5 6 6 4 4 2 2 2 2 2 3 3 5 6 9 13 13 13 12 10 10 11 11 10 10 12 12 10 11 10 8 7 7 6 7 7 9 12 13 12 14 16 14 13 15 15 16 17 16 15
Wind_Direction
358 356 357 358 359 360 0 359 357 354 351 349 347 346 343 341 338 334 332 328 325 320 319 322 325 325 326 333 334 331 329 320 315 277 239 244 209 202 215 218 214 199 204 209 207 212 193 197 207 205 216 222 222 235 236 235 194 144 122 152 220 231 202 190 151 147 156 117 77 96 175 142 106 275 200 213 244 183 132 127 132 131 135 136 145 147 143 146
357 356 356 357 359 360 360 359 357 355 352 349 347 346 342 340 337 336 334 330 326 321 319 319 321 322 323 333 336 332 331 320 299 269 250 216 171 205 233 233 215 200 207 212 216 222 200 192 206 203 210 226 222 225 227 234 219 203 180 177 222 210 183 162 133 148 116 112 142 168 185 172 144 189 194 190 194 159 138 144 151 144 133 135 148 147 143 147
355 355 355 356 358 360 359 358 357 355 353 350 347 346 343 339 338 337 335 330 326 321 318 316 316 317 322 332 337 336 332 316 287 266 260 209 195 218 235 235 223 216 215 210 210 222 214 193 202 204 208 226 221 214 215 216 218 216 206 236 234 198 163 148 143 159 118 127 158 174 178 177 171 187 270 181 159 154 151 155 154 141 138 146 151 146 147 150
355 355 355 356 357 359 358 357 356 355 352 350 347 346 343 340 338 337 335 331 327 324 319 316 313 314 325 333 337 343 326 300 281 211 245 210 207 213 224 233 234 229 220 212 210 227 232 209 199 205 212 222 222 222 225 219 212 186 198 238 209 171 158 163 155 153 146 136 151 155 147 170 179 168 324 112 127 190 168 152 147 141 146 151 149 151 153 153
355 354 354 355 356 357 356 355 355 354 351 350 347 345 343 340 338 338 335 330 329 329 325 317 313 318 329 334 339 345 328 319 105 123 90 304 227 212 221 227 228 223 214 211 216 240 256 243 210 201 216 229 224 228 229 222 221 199 212 221 180 161 160 162 156 159 167 133 131 133 123 139 131 125 160 147 147 220 171 146 145 144 150 152 152 157 156 154
353 353 353 352 354 355 355 353 353 352 350 349 345 343 343 340 338 337 333 329 331 330 327 318 317 327 337 339 343 341 329 352 95 115 48 354 266 227 217 210 207 206 206 208 221 241 259 259 232 201 204 235 236 241 239 223 217 229 235 204 162 169 172 163 165 171 171 147 141 145 141 149 126 136 126 317 207 259 279 149 144 144 151 153 153 157 157 155
351 352 351 350 352 353 353 351 351 350 349 346 343 342 342 341 338 336 332 329 330 327 326 322 324 340 347 343 344 271 252 279 277 30 14 357 314 233 209 199 202 200 199 204 217 229 240 249 236 207 197 221 241 248 253 245 226 225 247 196 170 184 182 165 166 171 170 160 152 146 159 182 164 144 118 269 241 254 263 150 140 143 150 149 154 161 158 153
350 352 351 350 350 351 352 350 349 348 346 344 341 339 340 341 340 336 332 328 329 327 327 332 341 346 341 341 327 253 237 250 223 82 14 6 5 259 204 194 202 195 193 205 211 216 235 248 232 215 208 216 235 241 245 259 249 227 239 227 187 188 178 162 165 173 172 170 161 145 151 180 162 144 156 211 226 234 213 145 137 145 149 150 160 166 158 151
350 351 351 349 348 349 350 348 348 346 343 341 338 337 337 339 341 339 333 328 326 324 324 336 343 337 329 322 291 279 262 280 146 97 34 45 0 311 186 184 192 185 191 210 215 217 227 245 231 216 223 230 239 248 250 254 255 232 234 236 214 195 165 163 172 167 167 161 152 142 139 176 172 154 161 183 199 201 160 143 141 147 150 156 165 167 160 152
350 351 351 348 346 346 347 347 346 343 340 337 335 334 334 337 340 340 333 327 321 315 316 323 331 330 317 284 271 284 323 339 5 8 35 109 349 340 175 185 186 180 191 209 215 224 229 242 239 217 233 251 253 264 275 271 280 281 260 257 246 209 157 171 172 147 148 131 133 145 147 181 204 189 165 166 173 167 148 146 147 151 154 159 166 168 161 154
349 351 350 347 345 344 345 345 344 341 337 333 332 331 332 336 338 338 334 327 317 309 309 314 322 319 292 277 263 258 309 327 327 309 301 161 261 209 179 193 185 182 195 207 214 225 235 247 252 234 226 248 264 269 280 281 293 302 296 298 276 244 166 173 162 137 141 143 151 147 129 160 216 209 179 156 155 153 152 155 154 155 156 160 166 168 163 158
349 351 349 347 345 343 343 343 343 340 334 329 327 328 331 334 335 335 331 323 310 302 308 315 322 311 284 276 238 233 286 314 319 300 261 231 227 208 204 201 188 186 200 210 217 226 239 254 263 262 238 232 250 259 291 288 284 281 279 287 283 284 208 172 160 144 146 162 151 129 96 173 221 210 172 149 149 155 160 161 158 156 155 162 165 161 168 167
348 350 349 346 344 342 341 341 341 338 332 326 323 325 329 330 330 330 324 316 305 302 312 317 319 301 284 265 238 239 282 291 304 313 256 243 235 208 215 208 188 185 207 222 223 226 236 248 260 270 268 268 261 284 315 301 282 267 260 254 264 288 266 199 171 144 144 165 149 127 105 197 211 202 168 149 153 155 160 164 159 155 157 166 164 158 174 173
347 348 348 346 343 342 340 339 339 337 331 323 319 322 324 326 327 324 317 309 302 305 314 316 314 297 268 262 268 262 292 281 248 283 230 217 246 213 208 220 197 186 208 232 242 248 251 247 250 265 273 273 288 313 315 307 294 272 262 258 234 232 246 239 203 157 148 164 155 131 129 198 203 189 165 153 162 156 159 174 161 157 161 164 161 163 177 171
346 347 346 345 342 341 340 338 338 336 331 323 318 319 319 321 322 315 306 303 302 304 315 313 278 237 273 272 260 241 257 263 224 243 199 208 279 232 195 209 217 202 207 229 245 263 272 259 240 247 271 273 283 296 299 301 297 276 247 254 225 203 232 244 233 189 156 160 167 142 120 214 196 179 167 157 167 162 159 178 171 163 164 160 160 169 181 170
346 346 345 344 342 341 339 338 337 335 330 321 317 316 314 316 316 307 295 293 294 292 307 306 234 208 274 292 228 217 247 267 284 278 242 238 272 269 216 191 212 221 215 229 238 254 274 276 246 229 251 261 259 255 286 295 275 267 232 233 224 210 215 228 251 208 153 154 181 167 135 208 184 170 168 156 163 164 159 174 171 167 169 164 160 169 182 170
346 345 344 343 342 341 339 337 336 335 329 321 319 317 314 314 310 299 289 285 288 283 263 265 253 211 247 289 306 256 236 56 6 322 297 251 243 280 268 193 187 216 216 230 237 242 261 271 255 226 224 236 249 216 245 259 247 259 227 233 250 237 226 211 246 215 155 151 182 181 151 169 178 169 166 156 160 165 165 171 168 169 174 168 161 166 182 175
345 343 343 342 341 341 338 336 335 335 328 319 318 318 315 315 307 292 290 287 293 278 245 255 276 283 249 268 282 274 66 49 352 314 312 270 220 271 285 258 184 199 206 223 230 226 223 229 229 233 210 210 241 211 206 223 220 242 224 211 233 238 249 235 245 222 165 158 170 176 158 161 168 166 162 153 159 171 169 170 171 171 173 169 162 165 178 181
343 342 343 342 341 340 337 335 334 334 329 318 321 327 327 332 334 291 271 233 217 265 271 240 205 238 290 251 248 289 343 344 301 266 223 208 207 236 279 278 238 197 199 192 201 206 195 203 217 229 223 203 216 218 230 244 231 249 251 235 234 231 244 235 246 250 184 167 165 165 155 152 155 159 158 151 165 173 155 167 175 166 172 172 165 170 176 180
342 342 343 341 341 339 335 334 332 334 330 321 327 337 350 1 6 39 307 240 231 249 273 262 207 241 292 295 308 323 310 269 244 241 184 168 182 185 247 265 240 202 208 205 190 193 199 219 214 215 230 220 216 217 234 259 260 267 274 277 280 268 261 231 237 251 186 155 160 160 149 148 155 164 163 160 171 166 154 184 179 158 170 168 159 168 172 176
341 342 343 341 341 337 334 333 330 332 327 319 323 330 11 14 352 342 341 287 269 268 269 267 252 276 289 308 320 315 300 237 216 177 112 158 195 151 174 218 230 208 210 233 220 187 196 226 226 216 226 232 235 224 222 240 254 269 276 281 287 279 280 263 248 245 173 144 159 162 151 151 159 166 167 164 168 170 175 183 172 162 171 163 155 160 158 169
341 342 341 341 340 335 333 332 329 327 319 313 310 279 0 15 348 320 333 297 292 292 281 271 256 273 262 258 294 288 285 256 220 160 97 196 186 153 176 187 222 216 196 225 242 210 199 224 239 232 231 230 240 243 232 229 235 253 265 276 283 278 288 280 265 245 173 146 160 166 160 152 152 157 164 165 166 181 186 176 167 171 174 171 174 169 161 161
341 340 339 341 338 333 332 330 325 319 311 306 292 284 1 1 349 336 323 281 290 284 272 247 226 251 230 190 274 270 272 290 250 130 110 270 192 182 215 195 223 232 204 204 214 232 222 212 222 232 242 236 234 241 245 243 232 234 244 259 269 270 280 282 281 269 213 161 158 161 154 141 141 149 164 170 170 180 180 169 168 176 180 183 184 174 166 167
340 339 339 340 336 333 332 327 323 323 320 305 282 298 11 1 1 360 331 263 278 280 262 222 214 248 112 52 294 275 282 292 309 112 147 237 282 323 249 232 244 241 228 217 210 223 242 233 216 215 226 238 242 236 235 245 247 232 228 239 260 269 270 274 289 292 285 189 156 147 126 141 159 162 172 176 173 179 173 166 169 178 184 182 179 175 170 174
340 339 337 339 336 332 330 327 337 341 329 312 287 322 14 6 3 0 334 266 249 268 257 218 188 319 26 341 246 244 291 278 260 97 93 349 347 355 310 287 260 249 252 240 225 221 238 249 239 220 213 223 240 244 233 227 242 249 225 219 235 263 271 276 292 304 319 294 156 142 128 199 187 174 173 171 172 180 174 167 170 178 182 178 177 180 178 184
339 339 337 339 336 333 334 331 345 339 326 336 356 358 5 2 355 347 324 276 257 186 205 201 158 253 344 96 219 287 302 290 0 78 84 28 29 23 309 305 257 254 262 256 258 241 224 234 244 244 225 212 220 237 245 234 231 251 239 220 216 240 264 272 287 299 305 296 183 162 156 173 193 187 178 173 173 178 179 176 174 174 179 181 181 181 181 189
338 338 337 336 333 336 338 308 329 333 325 2 359 351 353 351 344 341 266 253 256 154 163 186 174 198 151 148 195 331 331 302 335 323 144 112 72 104 268 288 279 264 274 278 282 265 241 231 233 248 247 227 216 217 231 239 240 233 246 253 230 221 245 261 272 269 264 297 275 235 202 135 177 202 188 175 170 174 184 189 181 175 178 182 185 183 183 188
337 338 337 333 330 332 312 287 313 321 312 343 346 344 344 330 321 319 261 320 110 158 180 105 115 183 187 201 217 258 284 240 275 274 160 160 180 158 208 264 281 283 291 295 271 270 267 240 220 248 254 243 234 216 207 221 240 247 248 264 260 229 231 245 255 251 260 294 290 286 305 139 187 199 188 174 170 177 191 197 189 179 179 183 186 186 185 187
336 336 337 331 329 338 307 284 291 302 320 331 337 337 324 308 306 298 258 317 133 158 258 108 104 168 222 254 226 235 260 246 222 209 195 200 200 195 240 266 289 300 301 294 278 282 287 287 308 297 273 250 250 249 224 213 223 239 250 266 279 273 256 252 259 263 261 253 261 278 292 281 224 189 177 170 177 188 193 195 189 182 181 183 185 186 185 187
333 334 337 331 326 347 349 286 271 308 333 329 329 324 308 295 290 210 252 228 145 154 198 130 105 188 230 250 217 210 254 261 225 190 220 221 187 188 245 266 274 295 296 291 286 283 289 296 304 294 276 264 251 254 252 242 239 235 241 258 275 290 307 299 295 340 22 247 259 271 271 282 279 192 173 176 189 190 188 188 184 182 184 184 184 185 185 186
331 332 333 327 317 317 314 274 276 333 336 326 326 314 296 291 221 252 334 73 104 232 186 94 56 209 236 265 214 174 261 263 32 350 256 235 179 189 228 237 228 293 289 280 283 275 274 281 285 275 280 281 260 256 256 250 261 262 244 248 258 285 311 310 344 19 358 271 280 284 276 268 270 215 179 190 195 186 182 184 181 181 185 186 184 184 186 186
331 330 326 319 307 283 261 269 335 355 340 328 326 308 289 28 191 238 270 50 42 305 14 72 29 4 348 306 338 95 8 252 55 348 330 321 261 211 185 73 51 320 285 296 310 286 256 249 258 272 278 279 265 271 274 250 249 249 236 218 199 222 269 272 336 12 237 260 284 296 292 261 251 244 196 198 198 187 186 187 182 180 182 185 185 182 184 186
331 328 318 303 281 265 263 295 336 344 330 324 317 299 314 297 253 318 16 48 60 276 346 59 14 357 349 326 24 56 4 4 164 341 359 338 305 30 55 40 22 7 351 345 330 320 283 243 239 258 269 256 227 239 275 279 238 231 219 179 163 172 218 230 197 200 244 269 266 274 287 270 251 271 228 199 190 185 191 192 185 183 182 181 182 180 181 184
333 327 314 292 262 268 277 292 316 308 311 321 310 280 298 243 15 22 35 41 15 320 56 68 325 313 281 289 65 88 338 15 39 359 347 321 311 31 56 41 29 21 3 356 348 339 330 290 272 337 326 298 250 224 235 279 266 238 235 179 214 203 206 224 178 169 204 234 227 233 252 210 179 263 268 250 206 181 188 192 186 185 183 179 178 177 179 183
339 329 314 299 274 276 278 264 277 280 288 314 304 277 308 42 25 20 22 16 353 357 25 355 279 259 237 221 107 80 49 38 28 358 292 297 17 49 49 36 35 32 13 12 1 333 325 305 334 344 325 312 310 273 244 267 286 236 192 216 243 239 240 250 242 225 213 223 225 215 220 193 187 237 261 267 259 206 187 187 186 188 184 176 176 178 181 185
347 344 318 290 274 279 281 249 248 258 272 304 305 285 349 35 24 32 2 346 351 345 337 318 289 286 267 167 109 72 76 103 21 27 288 331 42 48 57 48 35 40 41 28 314 346 344 293 321 340 322 319 344 338 300 235 234 285 212 204 214 228 243 247 265 282 277 265 261 230 226 210 199 237 252 261 266 255 212 182 180 184 180 175 180 181 183 187
345 345 319 289 286 318 91 193 218 226 263 304 290 301 13 41 21 32 9 336 335 328 321 335 13 332 325 91 104 90 116 99 7 0 310 5 38 28 55 70 47 46 45 32 346 21 5 292 309 342 320 324 349 339 320 237 199 231 270 230 196 216 261 267 255 280 272 258 253 247 250 206 182 226 238 246 261 260 253 193 171 175 177 179 183 183 184 187
335 328 303 291 316 63 97 150 196 207 246 286 262 289 25 60 33 21 10 342 334 334 342 5 13 336 351 36 57 22 67 62 350 347 338 8 45 17 26 49 43 43 33 24 22 9 6 308 305 337 328 331 344 336 328 302 208 214 268 297 326 160 263 256 244 247 245 265 261 264 276 229 188 199 199 216 236 241 249 221 167 170 177 180 185 186 185 186
324 307 307 336 58 82 92 151 210 231 242 292 284 306 41 60 54 29 10 358 352 354 8 8 2 6 15 20 3 357 23 28 22 41 8 18 56 25 20 17 29 33 18 13 24 334 13 317 288 328 360 340 330 312 348 2 294 253 294 303 289 252 243 239 247 235 218 255 265 269 284 264 216 199 186 202 214 214 230 223 168 170 176 180 185 185 182 181
312 285 325 355 60 106 116 193 244 271 246 300 338 35 40 37 44 39 22 10 12 24 21 0 354 5 10 17 25 20 18 19 18 23 14 32 62 37 22 16 13 17 0 358 27 4 0 43 283 317 352 341 311 292 357 5 344 314 320 313 300 307 292 278 270 244 227 237 255 273 275 272 258 224 188 199 210 211 218 215 172 172 176 178 181 178 178 180
298 303 340 344 25 144 255 266 227 254 261 12 23 38 35 22 21 30 26 9 14 43 23 358 359 10 9 19 31 27 9 8 13 5 8 40 58 45 22 17 3 3 354 356 40 31 350 7 311 310 332 328 300 304 323 335 324 315 324 313 307 321 304 283 262 244 241 219 220 268 277 265 266 299 331 241 218 211 212 207 170 170 173 176 177 176 176 175
271 344 7 340 325 223 276 284 219 192 67 59 59 45 38 40 26 26 22 7 13 28 359 2 25 22 21 24 26 28 19 4 359 4 26 52 56 44 26 21 6 0 1 358 32 29 345 302 308 305 307 302 295 298 306 310 304 301 302 296 303 339 333 305 290 296 297 243 216 219 266 274 273 313 328 304 227 194 200 202 157 163 171 173 173 177 177 173
322 330 290 281 256 256 290 306 334 69 92 85 79 59 46 49 33 24 19 13 20 15 355 33 48 29 19 15 14 28 29 12 4 9 24 59 55 42 33 27 12 3 9 0 8 9 345 306 343 320 306 302 296 294 297 313 328 307 298 332 346 351 346 321 311 354 343 307 263 198 208 272 285 308 328 322 274 177 181 181 148 150 166 173 173 174 176 175
332 297 249 228 213 227 286 349 352 42 85 72 96 88 71 53 34 26 30 27 26 12 1 30 45 28 11 4 4 26 33 25 4 5 10 32 44 50 46 35 18 8 17 16 8 4 344 357 18 340 319 318 307 301 309 359 9 336 313 341 345 347 353 345 344 19 13 353 353 335 201 251 306 350 0 354 355 16 164 174 169 147 149 168 176 174 177 179
316 271 267 285 191 159 28 17 4 24 52 31 49 80 83 76 46 33 43 40 30 15 5 15 32 28 17 6 352 7 34 57 3 354 6 2 359 32 39 28 17 9 3 6 15 15 337 334 356 329 303 300 296 309 331 355 352 319 313 332 335 345 354 350 344 350 330 347 351 326 257 304 337 357 7 8 9 11 20 36 67 168 149 156 171 186 189 187
304 302 334 339 18 33 31 29 22 32 35 13 15 40 56 92 73 38 40 42 27 19 19 15 25 32 22 15 3 358 19 34 11 2 7 352 343 359 6 1 357 352 345 350 360 3 337 309 293 255 253 268 277 291 302 309 312 303 311 323 324 331 340 332 322 337 321 319 310 285 331 339 336 343 359 14 19 20 24 31 30 10 16 134 168 184 189 188
301 353 18 355 344 9 25 23 28 47 27 9 24 13 11 47 66 44 37 35 22 37 37 16 16 32 35 27 15 1 9 5 353 1 9 1 353 350 350 344 338 346 353 349 341 334 280 272 278 268 263 266 273 281 288 295 298 299 303 311 313 320 329 324 316 327 327 321 304 317 341 343 321 317 339 14 22 24 24 28 31 22 10 11 38 68 139 174
331 358 24 10 325 335 18 358 39 75 53 26 41 21 10 25 38 35 32 15 20 53 55 11 8 21 34 39 22 351 359 350 329 354 17 8 351 343 339 322 322 355 2 345 325 321 270 259 271 274 275 277 277 278 283 289 293 293 294 299 305 309 313 312 311 315 310 289 280 307 321 326 308 307 339 13 20 30 29 23 27 27 16 15 34 46 55 80
357 352 1 1 348 357 37 37 49 71 59 37 37 22 13 21 20 14 12 355 18 50 46 5 14 15 17 37 49 359 346 335 326 352 8 347 323 311 309 306 337 16 11 346 337 355 349 285 281 279 284 289 286 283 285 289 291 290 288 291 297 299 300 299 297 300 295 282 279 293 299 296 292 309 1 357 9 30 28 22 28 29 22 24 40 49 48 49
15 45 341 334 346 353 13 32 31 59 53 38 35 13 9 29 28 10 355 353 14 28 11 348 1 11 19 23 19 340 327 323 315 321 323 314 305 292 297 317 43 16 344 327 338 13 48 308 299 298 295 295 298 297 293 291 290 287 286 285 285 287 289 287 283 284 284 280 289 303 302 291 290 10 16 342 18 34 27 26 30 28 23 26 39 44 42 43
358 2 344 322 342 336 332 18 29 59 58 31 26 20 11 29 33 11 348 358 15 23 358 352 349 355 54 43 349 329 334 328 312 310 316 314 309 311 317 310 231 260 267 234 249 63 83 302 304 309 294 290 299 299 295 292 285 279 279 281 280 279 280 281 281 281 283 292 311 313 300 292 323 12 17 7 21 33 35 34 29 22 20 20 29 36 34 36
358 353 350 334 282 318 346 38 34 47 75 47 41 36 15 17 20 11 357 355 359 2 8 7 349 334 10 38 5 350 329 305 295 303 307 299 296 294 284 281 279 269 258 237 193 161 178 242 291 306 294 291 293 293 296 296 283 270 273 279 275 268 262 266 271 272 271 279 298 298 290 318 347 22 41 25 15 24 39 40 30 18 16 14 20 27 25 24